World > North America > United States > Minnesota > Concordia College  

Concordia College, MN Hourly Weather Updates

Feedback E-mail the Weather

Quick Clicks

Concordia College, MN Weather Maps

°F °C°F °C
Concordia College Weather Map
UTC Time: 4/22/2024, 16:34
Your Time:

Concordia College, MN Regional Weather

Expires:202404221700;;191502
ASUS43 KMPX 221610
RWRMN 
WEATHER ROUNDUP FOR MINNESOTA
NATIONAL WEATHER SERVICE TWIN CITIES/CHANHASSEN MN
1100 AM CDT MON APR 22 2024


NOTE: "FAIR" INDICATES FEW OR NO CLOUDS BELOW 12,000 FEET WITH NO
SIGNIFICANT WEATHER AND/OR OBSTRUCTIONS TO VISIBILITY. N/A MEANS
CURRENT SKY AND/OR WEATHER CONDITIONS ARE NOT AVAILABLE.


MNZ001>005-007-008-013>017-022>024-027-028-221700-
   Northwest Minnesota   
  
CITY           SKY/WX    TMP DP  RH WIND       PRES   REMARKS
BEMIDJI        PTSUNNY   58  31  36 SW12      29.61F                  
HALLOCK        CLOUDY    52  34  50 S15       29.56R                  
ROSEAU         CLOUDY    54  30  40 SW10      29.56F                  
WARROAD        CLOUDY    54  36  50 SW13G20   29.57S                  
THIEF RVR FALL CLOUDY    52  31  44 S8G21     29.58F                  
CROOKSTON      CLOUDY    55 N/A N/A SW16      29.60R                  
FOSSTON        PTSUNNY   55  28  35 SW13      29.61F                  
DETROIT LAKES  PTSUNNY   57  34  41 SW12G17   29.63S                  
MOORHEAD       PTSUNNY   57  34  41 W10       29.63F                  
PARK RAPIDS    PTSUNNY   58  33  39 S14       29.63F                  
MAHNOMEN       PTSUNNY   56  33  41 SW14      29.62R                  
$$

SKY/WX - Weather  TMP - Temperature  DP - Dew Point  RH - Humidity
WIND - Wind Direction/Speed PRES - Barometric Pressure VSB - Visibility
WCI - Wind Chill Index E13G22 Wind - East Wind 13 mph/Gusts of 22 mph

Trending Headlines

Trending Entertainment Headlines

Concordia College Radar Loop

Use the map search tool if you want to place a location marker on the radar map...

Concordia College Quick Facts

National Two Day Weather Forecast


E-mail the Concordia College Weather Forecast

Voice your opinion or tell us about page issues...